This is the latest recevied weather packets stored in our database for station/object KE5WTH-14. If no packets are shown the sender has not sent any weather packets the latest 10 day(s).
| Time | Temp. | Humidity | Pressure | Rain* | Wind** | Luminosity | Snow |
|---|---|---|---|---|---|---|---|
| 1778017810 | 30° C | 49% | 1004.1 hPa | 0 mm | - | 274 W/m² | - |
| 1778017751 | 30° C | 50% | 1004.1 hPa | 0 mm | - | 278 W/m² | - |
| 1778017689 | 30.56° C | 50% | 1004 hPa | 0 mm | - | 278 W/m² | - |
| 1778017628 | 30.56° C | 50% | 1004.1 hPa | 0 mm | - | 278 W/m² | - |
| 1778017567 | 30.56° C | 52% | 1004 hPa | 0 mm | - | 278 W/m² | - |
| 1778017506 | 31.11° C | 55% | 1004.1 hPa | 0 mm | - | 281 W/m² | - |
| 1778017444 | 31.11° C | 55% | 1004 hPa | 0 mm | - | 285 W/m² | - |
| 1778017385 | 31.11° C | 55% | 1004 hPa | 0 mm | - | 404 W/m² | - |
| 1778017322 | 31.11° C | 54% | 1004 hPa | 0 mm | - | 357 W/m² | - |
| 1778017266 | 31.67° C | 53% | 1004 hPa | 0 mm | - | 466 W/m² | - |
| 1778017204 | 31.67° C | 53% | 1004 hPa | 0 mm | - | 549 W/m² | - |
| 1778017144 | 31.67° C | 54% | 1004.1 hPa | 0 mm | - | 540 W/m² | - |
| 1778017082 | 31.67° C | 56% | 1004 hPa | 0 mm | - | 693 W/m² | - |
| 1778017023 | 31.11° C | 55% | 1004 hPa | 0 mm | - | 783 W/m² | - |
| 1778016965 | 31.11° C | 53% | 1003.8 hPa | 0 mm | - | 742 W/m² | - |
| 1778016903 | 31.11° C | 52% | 1004 hPa | 0 mm | - | 714 W/m² | - |
| 1778016842 | 31.67° C | 53% | 1004 hPa | 0 mm | - | 645 W/m² | - |
| 1778016785 | 31.67° C | 53% | 1003.8 hPa | 0 mm | - | 853 W/m² | - |
| 1778016710 | 31.67° C | 55% | 1004 hPa | 0 mm | - | 761 W/m² | - |
| 1778016648 | 31.67° C | 55% | 1004 hPa | 0 mm | - | 673 W/m² | - |
| 1778016597 | 31.67° C | 55% | 1003.8 hPa | 0 mm | - | 584 W/m² | - |
| 1778016566 | 31.67° C | 55% | 1003.8 hPa | 0 mm | - | 721 W/m² | - |
| 1778016535 | 31.67° C | 55% | 1003.8 hPa | 0 mm | - | 712 W/m² | - |
| 1778016504 | 31.67° C | 55% | 1004 hPa | 0 mm | - | 786 W/m² | - |
| 1778016342 | 31.67° C | 55% | 1004 hPa | 0 mm | - | 677 W/m² | - |
* Rain latest hour (hover to see other rain measurements)
** Current wind speed in m/s (hover to see current wind gust speed)